Wind_Speed
27 27 27 27 27 27 27 26 26 26 25 25 26 26 26 26 26 27 25 25 25 26 26 26 27 27 27 28 27 27 27 28 27 28 28 28 28 27 27 28 28 28 28
27 27 28 28 28 28 28 28 27 27 26 26 26 27 27 27 27 27 26 25 25 26 27 27 27 28 28 29 29 28 28 28 28 29 29 29 29 28 28 28 28 29 29
28 29 28 28 28 28 28 28 27 27 26 26 26 26 26 26 26 26 26 26 25 25 26 27 28 28 29 29 29 30 30 29 29 30 30 30 30 29 30 30 30 29 30
28 28 28 28 28 28 28 28 27 27 27 26 26 26 26 27 27 26 26 26 26 26 26 27 27 28 29 30 30 31 31 30 30 30 31 30 31 30 31 31 31 31 31
27 27 28 28 28 27 28 29 28 27 28 28 28 27 27 28 28 28 27 28 28 28 27 27 28 29 29 30 30 31 32 32 32 31 31 31 31 31 32 31 32 33 33
26 26 26 27 28 27 27 28 27 27 27 28 28 28 28 28 29 29 29 29 30 30 29 29 29 29 30 31 31 31 32 32 33 33 32 32 32 32 33 33 33 33 34
25 26 25 25 25 25 25 25 25 26 26 27 28 28 29 29 29 30 31 31 31 31 31 30 30 30 31 31 31 31 32 32 33 33 33 33 33 33 34 34 34 34 35
24 24 22 23 24 23 24 24 25 25 26 27 27 28 28 29 29 30 31 32 32 32 32 32 32 31 31 31 32 33 33 34 34 34 34 35 33 33 35 35 35 35 36
22 22 22 22 23 23 23 23 24 25 25 26 27 27 27 27 29 29 29 31 32 33 33 33 34 33 33 33 33 34 34 35 35 35 36 36 36 36 36 36 36 36 36
23 23 23 23 24 24 23 23 24 24 24 25 25 26 27 27 28 28 29 30 31 32 33 33 33 34 33 34 34 35 35 36 36 36 36 37 37 37 38 38 38 38 37
23 23 22 23 24 23 23 24 24 24 24 25 25 26 27 27 27 28 28 30 31 32 32 33 34 34 34 34 34 35 36 37 37 37 37 38 38 38 38 38 38 39 38
23 23 23 23 24 23 24 24 24 24 25 25 26 26 26 26 26 27 28 30 31 32 33 33 34 34 35 36 36 36 37 38 38 38 38 39 39 38 38 38 39 39 39
23 23 23 23 23 22 23 24 24 24 24 25 25 26 26 26 26 27 28 29 31 32 33 34 35 35 36 36 37 36 37 38 39 39 38 39 39 39 40 39 40 40 39
22 21 21 22 22 21 22 22 23 23 23 24 25 25 26 26 26 27 28 29 30 31 32 33 34 35 35 36 37 37 37 37 38 40 40 40 40 40 40 40 40 41 40
20 19 20 20 20 20 20 21 21 22 23 24 25 25 26 26 27 27 27 29 29 30 31 33 34 34 34 34 35 37 38 38 38 39 40 40 41 41 41 42 42 42 41
18 18 18 19 19 19 20 20 20 22 24 24 25 25 25 25 26 27 27 28 28 29 30 32 33 34 35 36 36 36 37 37 37 38 38 39 40 41 42 42 42 43 43
17 17 17 18 18 19 20 20 21 22 23 23 24 24 24 24 25 26 26 27 28 29 30 31 32 33 34 35 36 35 35 36 37 37 38 38 39 40 41 41 42 42 43
16 16 16 17 18 19 20 20 20 21 22 22 23 23 23 24 25 25 26 28 28 28 29 29 30 31 32 32 33 35 36 36 37 37 38 38 38 38 39 40 41 41 42
16 16 17 17 18 19 19 20 21 22 23 23 22 22 23 24 25 26 26 27 26 26 27 28 29 30 30 31 32 32 33 34 36 36 37 37 37 38 38 39 40 41 41
16 16 16 17 17 18 19 20 21 22 23 22 22 22 23 24 25 26 26 25 25 25 26 27 27 27 28 29 30 31 31 32 33 34 36 36 36 37 38 38 39 40 41
16 16 16 16 17 18 19 20 21 22 23 23 22 22 23 23 24 25 26 26 26 25 25 25 25 25 25 27 28 29 29 30 31 32 33 34 35 36 37 38 39 39 40
16 16 17 17 18 19 20 21 21 21 22 22 22 22 22 22 24 24 25 25 25 25 25 24 25 25 25 25 25 27 28 29 30 31 32 32 34 35 37 37 38 39 40
16 17 17 18 19 20 21 21 21 21 21 21 21 21 21 22 23 24 25 25 25 25 25 25 25 25 25 25 25 26 27 28 28 29 30 31 33 34 35 36 38 39 41
17 17 18 19 19 20 20 21 21 21 21 21 21 22 22 23 24 24 25 25 25 25 25 24 24 25 25 25 25 25 25 26 27 28 29 30 32 34 35 37 38 39 40
17 17 19 19 19 19 20 21 22 22 22 21 21 22 22 23 24 24 25 25 25 25 25 25 25 24 24 24 24 24 24 24 25 26 27 30 32 34 35 37 38 38 39
17 18 19 19 19 20 21 22 22 23 22 22 22 23 23 24 24 25 25 25 24 24 24 24 24 24 24 24 24 25 25 26 26 26 26 27 29 31 33 34 36 37 38
Wind_Direction
288 287 287 286 284 283 282 282 280 280 280 278 277 276 275 273 272 271 268 266 265 262 261 260 258 257 256 255 255 255 251 248 245 244 242 243 242 240 240 240 241 241 241
286 287 286 284 283 283 282 282 282 282 280 278 277 277 277 275 273 272 269 265 263 263 261 260 258 257 257 255 254 254 253 250 247 245 243 241 241 242 241 241 242 242 241
286 287 288 286 284 282 282 281 282 282 281 280 278 277 276 275 273 271 268 267 264 263 263 262 261 259 258 257 255 254 253 252 250 248 246 243 241 242 242 243 243 243 243
287 287 287 285 282 280 280 281 282 282 281 280 279 279 277 275 272 270 268 268 265 264 264 263 262 261 259 257 256 254 253 252 251 249 247 245 243 243 243 243 243 243 243
288 289 288 286 282 280 279 279 279 278 279 279 280 280 277 274 271 268 267 267 265 265 265 264 262 261 259 257 257 255 253 252 251 250 247 245 243 244 243 244 244 244 244
290 289 289 287 283 282 281 280 278 278 279 279 280 279 278 273 270 268 267 266 265 265 266 265 263 261 259 258 256 255 254 253 251 250 249 247 245 245 245 244 244 245 245
290 289 287 286 286 286 284 282 281 280 280 280 280 280 277 274 270 268 266 266 266 265 265 264 264 262 260 257 255 254 253 252 251 251 250 249 247 246 246 245 245 246 246
292 291 288 285 285 287 286 283 284 283 281 281 281 281 278 274 272 270 267 266 265 265 265 264 265 263 261 258 256 255 253 252 251 251 250 249 248 248 248 247 246 247 246
291 291 290 289 286 287 287 285 286 286 285 284 282 281 280 278 274 270 269 268 266 266 266 267 264 263 262 260 258 255 254 252 251 251 250 249 249 249 249 248 247 247 245
291 291 292 292 291 288 288 288 287 288 289 288 285 283 281 279 276 271 270 269 268 268 268 267 265 264 263 261 259 257 254 252 251 251 250 250 249 250 249 249 249 248 246
293 292 294 293 294 291 291 290 289 290 290 289 287 284 282 280 278 274 272 271 271 270 269 266 265 264 262 261 261 258 255 253 252 251 251 251 250 250 249 249 248 248 246
294 292 293 293 295 293 292 294 292 291 290 289 288 286 284 284 281 278 276 273 272 271 269 267 265 264 262 261 260 259 256 254 252 251 251 251 251 251 250 249 249 248 246
293 292 292 293 295 294 294 295 294 293 291 290 289 288 286 286 283 281 278 276 273 272 270 268 267 265 264 262 259 259 258 255 253 252 251 251 251 251 250 250 248 248 247
294 294 294 295 295 295 296 295 294 293 294 293 292 290 288 288 286 283 281 278 275 273 270 269 269 269 268 265 262 260 258 256 254 252 252 252 251 251 251 250 249 248 247
297 298 298 298 298 298 298 296 295 295 296 296 294 292 290 289 287 286 285 281 278 275 272 271 272 271 268 265 263 261 259 257 255 253 253 253 252 252 251 250 250 248 247
300 301 299 299 300 300 299 298 298 298 299 299 297 294 292 290 289 289 287 283 280 277 275 273 273 271 270 268 264 262 260 259 256 254 254 253 253 252 251 250 250 248 247
304 302 302 302 303 303 302 302 303 302 302 301 298 294 293 291 290 289 289 287 284 281 278 277 275 273 271 269 267 264 261 259 257 256 254 253 253 252 251 250 250 249 247
309 305 305 306 306 308 309 308 304 303 303 300 297 297 295 294 292 291 291 290 288 285 282 280 277 275 272 271 270 266 263 261 258 258 257 255 253 251 251 251 250 249 248
317 313 310 310 312 312 312 311 307 306 307 304 301 299 297 295 295 295 293 293 292 289 285 281 279 277 275 273 270 268 265 262 259 257 256 256 253 252 251 251 250 250 249
322 320 314 314 315 315 315 313 310 310 309 308 304 302 301 300 298 298 296 295 294 291 289 286 283 280 276 273 271 268 265 264 261 259 258 255 254 253 252 252 251 249 249
327 324 322 319 317 318 319 317 315 314 314 313 311 307 304 302 302 301 300 297 295 292 290 288 285 282 280 276 273 269 266 265 264 262 259 256 255 254 253 254 252 250 249
331 329 328 325 323 324 323 321 321 321 320 320 317 311 306 304 303 303 303 302 298 296 293 291 287 284 281 280 276 272 269 268 267 264 261 258 256 255 255 254 253 252 251
332 331 332 330 329 327 326 325 326 325 324 322 321 317 313 310 309 307 306 304 301 300 296 292 289 287 283 281 278 274 271 269 266 264 261 259 258 256 255 255 255 254 254
333 330 333 332 331 330 330 332 331 329 326 325 324 322 319 315 312 311 309 305 303 302 299 295 293 290 287 284 281 278 276 272 269 267 264 262 260 259 257 257 256 255 254
334 332 332 333 333 334 335 335 335 334 332 329 326 325 321 317 314 312 312 309 306 304 301 297 296 294 290 287 283 279 276 275 272 269 268 265 262 261 260 258 256 255 254
337 336 336 336 336 337 337 336 337 336 334 331 327 324 322 320 318 316 315 314 310 307 303 300 297 295 291 288 284 281 278 276 274 271 270 269 266 263 261 260 258 255 254
Height
5824 5822 5820 5819 5817 5816 5815 5814 5813 5812 5811 5809 5809 5808 5808 5808 5808 5808 5807 5808 5808 5808 5809 5810 5810 5811 5812 5813 5814 5815 5816 5817 5819 5821 5823 5825 5827 5829 5831 5833 5836 5838 5840
5818 5816 5814 5812 5811 5810 5809 5808 5807 5806 5805 5804 5803 5802 5802 5802 5801 5801 5801 5801 5801 5802 5802 5803 5804 5805 5805 5806 5807 5809 5810 5811 5812 5814 5816 5818 5820 5823 5825 5827 5830 5832 5834
5811 5810 5808 5806 5805 5803 5802 5801 5801 5799 5798 5797 5796 5796 5795 5795 5795 5794 5794 5794 5794 5795 5796 5797 5797 5798 5799 5800 5800 5802 5803 5805 5806 5807 5809 5812 5814 5816 5819 5821 5823 5826 5828
5806 5804 5801 5800 5798 5797 5796 5795 5794 5793 5792 5791 5790 5789 5789 5788 5788 5788 5788 5787 5788 5788 5789 5789 5790 5791 5792 5793 5794 5795 5796 5797 5799 5801 5802 5804 5807 5809 5811 5814 5816 5819 5821
5800 5797 5795 5793 5791 5790 5789 5788 5787 5786 5785 5784 5783 5782 5782 5781 5781 5781 5781 5781 5781 5781 5782 5782 5783 5784 5784 5785 5786 5787 5789 5790 5791 5793 5795 5797 5799 5802 5804 5807 5809 5811 5814
5793 5791 5788 5786 5784 5783 5782 5781 5779 5779 5778 5777 5776 5775 5774 5774 5774 5774 5774 5774 5774 5774 5774 5775 5775 5776 5777 5778 5779 5780 5781 5782 5783 5785 5787 5790 5792 5794 5797 5799 5802 5804 5806
5786 5784 5782 5781 5779 5777 5775 5774 5773 5772 5770 5769 5769 5767 5766 5766 5765 5766 5766 5766 5766 5767 5767 5767 5767 5768 5769 5769 5770 5772 5773 5774 5776 5777 5779 5781 5784 5786 5789 5791 5794 5796 5799
5780 5778 5777 5775 5773 5771 5770 5768 5767 5765 5764 5763 5761 5759 5758 5758 5758 5757 5758 5758 5758 5759 5759 5759 5759 5760 5760 5761 5762 5763 5764 5766 5767 5769 5771 5773 5775 5778 5780 5783 5785 5788 5790
5775 5773 5771 5769 5767 5766 5764 5762 5761 5759 5757 5756 5754 5752 5751 5751 5750 5750 5750 5749 5749 5750 5750 5750 5751 5751 5751 5752 5753 5754 5755 5757 5759 5761 5762 5765 5767 5769 5772 5774 5777 5779 5782
5769 5767 5766 5764 5762 5760 5758 5756 5754 5753 5751 5749 5747 5745 5744 5743 5742 5742 5742 5741 5741 5741 5741 5741 5741 5742 5742 5743 5744 5745 5746 5748 5749 5751 5753 5755 5757 5760 5762 5765 5767 5770 5772
5763 5761 5760 5758 5756 5754 5752 5749 5748 5746 5744 5742 5740 5739 5737 5735 5734 5733 5733 5733 5732 5731 5732 5732 5732 5732 5732 5733 5734 5735 5736 5738 5739 5741 5743 5745 5748 5750 5752 5755 5757 5760 5763
5757 5755 5754 5752 5750 5748 5746 5744 5742 5740 5738 5735 5733 5732 5730 5728 5726 5725 5725 5724 5723 5722 5722 5722 5722 5722 5722 5722 5723 5724 5726 5727 5729 5731 5733 5735 5737 5740 5742 5745 5747 5750 5753
5751 5750 5748 5746 5744 5742 5740 5738 5735 5733 5731 5729 5726 5725 5723 5721 5719 5717 5716 5715 5714 5713 5712 5712 5711 5712 5712 5712 5712 5714 5715 5716 5718 5720 5722 5725 5727 5729 5732 5734 5737 5740 5742
5745 5744 5742 5740 5738 5736 5734 5732 5729 5727 5725 5722 5720 5717 5715 5713 5711 5710 5708 5707 5706 5705 5703 5703 5702 5701 5701 5702 5702 5703 5704 5705 5707 5709 5711 5714 5716 5719 5721 5724 5726 5729 5732
5740 5738 5736 5734 5732 5730 5728 5725 5723 5721 5718 5715 5712 5710 5708 5706 5704 5702 5700 5698 5697 5696 5696 5694 5693 5692 5692 5692 5692 5692 5693 5694 5696 5698 5700 5703 5705 5708 5710 5713 5716 5718 5721
5735 5733 5731 5729 5726 5724 5722 5719 5717 5714 5711 5708 5705 5703 5701 5699 5696 5694 5692 5690 5688 5687 5686 5685 5684 5683 5682 5682 5682 5682 5683 5684 5685 5687 5689 5691 5694 5696 5699 5701 5704 5707 5710
5730 5728 5726 5723 5721 5719 5716 5714 5711 5708 5704 5701 5698 5696 5694 5692 5689 5687 5684 5682 5680 5678 5677 5676 5674 5673 5672 5671 5671 5671 5672 5673 5674 5676 5678 5680 5682 5685 5687 5690 5692 5695 5698
5726 5724 5721 5719 5717 5714 5711 5708 5705 5701 5698 5695 5692 5690 5687 5685 5682 5679 5677 5674 5671 5669 5667 5666 5664 5663 5662 5662 5661 5661 5661 5662 5664 5665 5667 5668 5671 5673 5676 5678 5681 5684 5687
5722 5719 5717 5714 5712 5709 5706 5703 5699 5696 5693 5689 5686 5683 5681 5678 5675 5672 5669 5665 5663 5660 5658 5657 5655 5654 5653 5652 5651 5651 5651 5652 5653 5654 5656 5657 5660 5662 5664 5667 5669 5672 5675
5718 5716 5713 5710 5707 5704 5701 5698 5694 5691 5687 5684 5680 5677 5674 5671 5668 5665 5661 5658 5655 5653 5650 5648 5646 5645 5643 5642 5642 5641 5641 5641 5642 5643 5644 5646 5648 5650 5653 5655 5658 5661 5663
5715 5713 5709 5707 5704 5700 5697 5693 5689 5686 5682 5678 5674 5671 5668 5665 5661 5658 5654 5651 5648 5645 5642 5640 5638 5636 5635 5634 5633 5632 5632 5632 5632 5633 5634 5636 5637 5640 5642 5644 5646 5649 5651
5713 5710 5707 5703 5700 5696 5693 5689 5685 5681 5677 5673 5669 5665 5662 5659 5655 5652 5648 5644 5641 5638 5635 5633 5630 5628 5627 5625 5624 5623 5623 5623 5623 5624 5624 5625 5626 5628 5631 5633 5635 5637 5639
5710 5707 5704 5700 5697 5693 5689 5685 5680 5676 5672 5668 5664 5660 5657 5653 5649 5646 5642 5638 5634 5630 5628 5626 5623 5621 5619 5617 5616 5615 5614 5613 5614 5614 5614 5615 5616 5618 5619 5621 5623 5625 5627
5708 5704 5701 5697 5693 5689 5685 5681 5676 5672 5668 5663 5659 5655 5652 5648 5644 5640 5636 5632 5628 5624 5621 5618 5615 5613 5611 5609 5608 5607 5605 5605 5605 5604 5604 5605 5606 5607 5608 5609 5611 5613 5615
5705 5702 5698 5694 5690 5686 5681 5677 5673 5668 5663 5659 5655 5651 5647 5643 5639 5634 5630 5626 5621 5617 5613 5610 5608 5605 5603 5601 5600 5598 5597 5596 5596 5595 5595 5595 5595 5596 5597 5597 5598 5600 5602
5703 5699 5695 5691 5687 5683 5678 5674 5669 5664 5659 5655 5651 5646 5642 5637 5633 5628 5624 5619 5614 5610 5607 5603 5600 5597 5595 5593 5591 5590 5589 5587 5587 5587 5586 5585 5585 5585 5586 5586 5587 5588 5590